This is the latest recevied weather packets stored in our database for station/object WD0REW. If no packets are shown the sender has not sent any weather packets the latest 10 day(s).
| Time | Temp. | Humidity | Pressure | Rain* | Wind** | Luminosity | Snow |
|---|---|---|---|---|---|---|---|
| 1777840913 | 26.67° C | 31% | 1014.1 hPa | 0 mm | - | 52 W/m² | - |
| 1777840609 | 26.67° C | 35% | 1014.2 hPa | 0 mm | - | 52 W/m² | - |
| 1777840307 | 26.67° C | 33% | 1014.3 hPa | 0 mm | - | 111 W/m² | - |
| 1777840004 | 26.11° C | 36% | 1014.5 hPa | 0 mm | - | 344 W/m² | - |
| 1777839702 | 26.11° C | 32% | 1014.6 hPa | 0 mm | - | 590 W/m² | - |
| 1777839400 | 26.67° C | 33% | 1014.6 hPa | 0 mm | - | 603 W/m² | - |
| 1777839097 | 26.11° C | 36% | 1014.6 hPa | 0 mm | - | 616 W/m² | - |
| 1777838793 | 26.11° C | 34% | 1014.6 hPa | 0 mm | - | 629 W/m² | - |
| 1777838490 | 26.11° C | 33% | 1014.9 hPa | 0 mm | - | 640 W/m² | - |
| 1777838187 | 26.11° C | 34% | 1014.7 hPa | 0 mm | - | 652 W/m² | - |
| 1777837884 | 26.11° C | 34% | 1014.9 hPa | 0 mm | - | 663 W/m² | - |
| 1777837581 | 26.11° C | 34% | 1015.2 hPa | 0 mm | - | 674 W/m² | - |
| 1777837276 | 26.11° C | 34% | 1015.2 hPa | 0 mm | - | 687 W/m² | - |
| 1777836973 | 26.11° C | 35% | 1015.4 hPa | 0 mm | - | 696 W/m² | - |
| 1777836668 | 26.11° C | 33% | 1015.4 hPa | 0 mm | - | 707 W/m² | - |
| 1777836364 | 26.11° C | 37% | 1015.5 hPa | 0 mm | - | 716 W/m² | - |
| 1777836060 | 26.11° C | 35% | 1015.5 hPa | 0 mm | - | 726 W/m² | - |
| 1777835757 | 25.56° C | 35% | 1015.7 hPa | 0 mm | - | 738 W/m² | - |
| 1777835454 | 25.56° C | 36% | 1015.6 hPa | 0 mm | - | 745 W/m² | - |
| 1777835151 | 25° C | 39% | 1015.6 hPa | 0 mm | - | 754 W/m² | - |
| 1777834848 | 25.56° C | 37% | 1016 hPa | 0 mm | - | 765 W/m² | - |
| 1777834544 | 25° C | 39% | 1015.8 hPa | 0 mm | - | 771 W/m² | - |
| 1777834244 | 25° C | 39% | 1016.1 hPa | 0 mm | - | 778 W/m² | - |
| 1777833940 | 24.44° C | 40% | 1016.2 hPa | 0 mm | - | 788 W/m² | - |
| 1777833637 | 24.44° C | 39% | 1016.1 hPa | 0 mm | - | 788 W/m² | - |
* Rain latest hour (hover to see other rain measurements)
** Current wind speed in m/s (hover to see current wind gust speed)